H1 CPF 2 NER 2023 2 11 9 042 01 glonass140 H2 1903001 9140 44299 2023 2 11 0 0 0 2023 2 14 23 45 0 900 1 1 0 0 0 1 H9 10 0 59986 0.00000 0 6441550.829 19111611.745 -15587152.753 10 0 59986 900.00000 0 6505660.987 20886094.379 -13084238.854 10 0 59986 1800.00000 0 6682320.935 22327519.367 -10326629.555 10 0 59986 2700.00000 0 6922881.350 23402435.489 -7368021.677 10 0 59986 3600.00000 0 7174139.820 24089677.425 -4266020.885 10 0 59986 4500.00000 0 7380814.218 24381122.603 -1081011.073 10 0 59986 5400.00000 0 7488111.302 24281915.623 2125030.171 10 0 59986 6300.00000 0 7444280.477 23810151.755 5289745.947 10 0 59986 7200.00000 0 7203043.447 22996034.079 8351619.546 10 0 59986 8100.00000 0 6725796.015 21880541.090 11251174.529 10 0 59986 9000.00000 0 5983488.242 20513662.224 13932131.448 10 0 59986 9900.00000 0 4958103.127 18952276.802 16342498.462 10 0 59986 10800.00000 0 3643671.222 17257766.507 18435574.804 10 0 59986 11700.00000 0 2046778.331 15493462.238 20170848.202 10 0 59986 12600.00000 0 186544.904 13722032.557 21514769.663 10 0 59986 13500.00000 0 -1905922.202 12002922.778 22441391.769 10 0 59986 14400.00000 0 -4188582.999 10389950.983 22932859.347 10 0 59986 15300.00000 0 -6609979.260 8929160.288 22979744.242 10 0 59986 16200.00000 0 -9111148.697 7657015.543 22581218.804 10 0 59986 17100.00000 0 -11627859.850 6599018.133 21745065.566 10 0 59986 18000.00000 0 -14093075.975 5768795.103 20487523.406 10 0 59986 18900.00000 0 -16439546.952 5167699.152 18832973.289 10 0 59986 19800.00000 0 -18602422.914 4784934.944 16813469.420 10 0 59986 20700.00000 0 -20521782.280 4598205.540 14468124.320 10 0 59986 21600.00000 0 -22144970.205 4574851.214 11842358.934 10 0 59986 22500.00000 0 -23428651.033 4673432.568 8987031.351 10 0 59986 23400.00000 0 -24340489.781 4845691.336 5957460.085 10 0 59986 24300.00000 0 -24860392.842 5038806.424 2812359.986 10 0 59986 25200.00000 0 -24981256.068 5197850.205 -387289.339 10 0 59986 26100.00000 0 -24709188.708 5268341.486 -3579421.115 10 0 59986 27000.00000 0 -24063203.431 5198787.193 -6702082.429 10 0 59986 27900.00000 0 -23074384.898 4943104.991 -9694635.517 10 0 59986 28800.00000 0 -21784571.193 4462823.801 -12498935.815 10 0 59986 29700.00000 0 -20244602.867 3728968.225 -15060463.703 10 0 59986 30600.00000 0 -18512212.597 2723545.976 -17329387.675 10 0 59986 31500.00000 0 -16649643.549 1440573.967 -19261537.912 10 0 59986 32400.00000 0 -14721096.077 -113402.016 -20819271.026 10 0 59986 33300.00000 0 -12790109.545 -1919317.908 -21972208.847 10 0 59986 34200.00000 0 -10916988.899 -3946133.813 -22697836.531 10 0 59986 35100.00000 0 -9156383.743 -6151887.487 -22981948.025 10 0 59986 36000.00000 0 -7555121.234 -8485216.561 -22818929.824 10 0 59986 36900.00000 0 -6150383.578 -10887287.297 -22211877.062 10 0 59986 37800.00000 0 -4968306.342 -13294050.435 -21172539.182 10 0 59986 38700.00000 0 -4023056.128 -15638730.696 -19721095.759 10 0 59986 39600.00000 0 -3316425.949 -17854446.315 -17885766.345 10 0 59986 40500.00000 0 -2837964.733 -19876849.235 -15702261.575 10 0 59986 41400.00000 0 -2565634.720 -21646675.390 -13213085.967 10 0 59986 42300.00000 0 -2466968.056 -23112097.998 -10466706.015 10 0 59986 43200.00000 0 -2500672.580 -24230784.929 -7516600.023 10 0 59986 44100.00000 0 -2618617.588 -24971573.624 -4420208.692 10 0 59986 45000.00000 0 -2768114.117 -25315693.181 -1237807.717 10 0 59986 45900.00000 0 -2894391.690 -25257482.501 1968674.716 10 0 59986 46800.00000 0 -2943165.208 -24804574.862 5136871.448 10 0 59986 47700.00000 0 -2863181.950 -23977541.998 8205196.218 10 0 59986 48600.00000 0 -2608639.738 -22809013.735 11114045.265 10 0 59986 49500.00000 0 -2141373.139 -21342311.396 13806956.715 10 0 59986 50400.00000 0 -1432714.747 -19629653.578 16231704.902 10 0 59986 51300.00000 0 -464952.683 -17730010.613 18341308.528 10 0 59986 52200.00000 0 767677.227 -15706698.369 20094933.625 10 0 59986 53100.00000 0 2258506.372 -13624812.452 21458674.651 10 0 59986 54000.00000 0 3988475.755 -11548609.931 22406199.705 10 0 59986 54900.00000 0 5926704.341 -9538947.254 22919248.618 10 0 59986 55800.00000 0 8031559.896 -7650880.208 22987975.508 10 0 59986 56700.00000 0 10252188.284 -5931524.509 22611130.245 10 0 59986 57600.00000 0 12530438.341 -4418264.511 21796076.198 10 0 59986 58500.00000 0 14803103.257 -3137382.941 20558644.369 10 0 59986 59400.00000 0 17004386.428 -2103167.051 18922826.910 10 0 59986 60300.00000 0 19068490.523 -1317526.930 16920315.689 10 0 59986 61200.00000 0 20932223.235 -770140.640 14589894.295 10 0 59986 62100.00000 0 22537512.365 -439119.106 11976694.461 10 0 59986 63000.00000 0 23833726.318 -292162.219 9131330.362 10 0 59986 63900.00000 0 24779703.799 -288157.265 6108926.653 10 0 59986 64800.00000 0 25345408.202 -379152.279 2968058.175 10 0 59986 65700.00000 0 25513137.517 -512621.189 -230378.812 10 0 59986 66600.00000 0 25278238.745 -633925.211 -3424342.493 10 0 59986 67500.00000 0 24649296.349 -688866.494 -6551845.928 10 0 59986 68400.00000 0 23647786.107 -626225.860 -9552158.868 10 0 59986 69300.00000 0 22307208.062 -400176.915 -12366987.492 10 0 59986 70200.00000 0 20671734.105 27526.289 -14941608.960 10 0 59986 71100.00000 0 18794426.091 685681.520 -17225938.457 10 0 59986 72000.00000 0 16735098.497 1592170.756 -19175507.644 10 0 59986 72900.00000 0 14557914.573 2752956.213 -20752335.181 10 0 59986 73800.00000 0 12328816.166 4161584.081 -21925672.063 10 0 59986 74700.00000 0 10112894.469 5799218.738 -22672606.931 10 0 59986 75600.00000 0 7971811.390 7635207.891 -22978519.252 10 0 59986 76500.00000 0 5961379.200 9628156.773 -22837371.145 10 0 59986 77400.00000 0 4129399.513 11727467.904 -22251831.753 10 0 59986 78300.00000 0 2513851.767 13875283.263 -21233231.249 10 0 59986 79200.00000 0 1141506.729 16008748.550 -19801344.890 10 0 59986 80100.00000 0 27022.693 18062505.277 -17984010.823 10 0 59986 81000.00000 0 -827438.345 19971306.577 -15816588.726 10 0 59986 81900.00000 0 -1432059.246 21672647.077 -13341269.545 10 0 59986 82800.00000 0 -1808688.433 23109296.186 -10606249.801 10 0 59986 83700.00000 0 -1989662.656 24231628.073 -7664786.761 10 0 59986 84600.00000 0 -2016182.946 24999650.035 -4574153.367 10 0 59986 85500.00000 0 -1936314.004 25384643.616 -1394514.106 10 0 59987 0.00000 0 -1802693.295 25370349.402 1812255.085 10 0 59987 900.00000 0 -1670048.377 24953645.688 4983780.563 10 0 59987 1800.00000 0 -1592629.278 24144693.033 8058409.381 10 0 59987 2700.00000 0 -1621665.634 22966539.344 10976413.506 10 0 59987 3600.00000 0 -1802957.375 21454202.879 13681151.496 10 0 59987 4500.00000 0 -2174701.452 19653272.767 16120166.500 10 0 59987 5400.00000 0 -2765646.734 17618086.620 18246199.058 10 0 59987 6300.00000 0 -3593655.044 15409562.273 20018095.588 10 0 59987 7200.00000 0 -4664728.841 13092774.720 21401595.752 10 0 59987 8100.00000 0 -5972546.331 10734379.418 22369984.574 10 0 59987 9000.00000 0 -7498523.466 8399988.903 22904597.911 10 0 59987 9900.00000 0 -9212400.360 6151611.092 22995172.740 10 0 59987 10800.00000 0 -11073327.946 4045254.547 22640036.576 10 0 59987 11700.00000 0 -13031410.125 2128798.724 21846133.223 10 0 59987 12600.00000 0 -15029637.933 440216.000 20628884.876 10 0 59987 13500.00000 0 -17006136.144 -993782.322 19011893.396 10 0 59987 14400.00000 0 -18896629.882 -2158621.420 17026486.309 10 0 59987 15300.00000 0 -20637029.584 -3052224.738 14711115.790 10 0 59987 16200.00000 0 -22166027.623 -3684848.358 12110621.474 10 0 59987 17100.00000 0 -23427599.141 -4078395.808 9275370.436 10 0 59987 18000.00000 0 -24373303.220 -4265242.692 6260290.072 10 0 59987 18900.00000 0 -24964288.482 -4286620.878 3123811.738 10 0 59987 19800.00000 0 -25172919.129 -4190630.424 -73255.139 10 0 59987 20700.00000 0 -24983952.888 -4029963.092 -3268897.118 10 0 59987 21600.00000 0 -24395220.838 -3859433.567 -6401096.509 10 0 59987 22500.00000 0 -23417779.675 -3733422.838 -9409033.693 10 0 59987 23400.00000 0 -22075529.004 -3703342.035 -12234268.496 10 0 59987 24300.00000 0 -20404308.598 -3815224.518 -14821877.503 10 0 59987 25200.00000 0 -18450512.368 -4107548.703 -17121524.923 10 0 59987 26100.00000 0 -16269276.118 -4609384.679 -19088445.848 10 0 59987 27000.00000 0 -13922314.077 -5338944.096 -20684322.466 10 0 59987 27900.00000 0 -11475493.930 -6302595.992 -21878035.898 10 0 59987 28800.00000 0 -8996251.166 -7494391.632 -22646278.674 10 0 59987 29700.00000 0 -6550950.289 -8896120.068 -22974015.606 10 0 59987 30600.00000 0 -4202302.695 -10477893.755 -22854783.721 10 0 59987 31500.00000 0 -2006948.810 -12199241.194 -22290824.960 10 0 59987 32400.00000 0 -13305.127 -14010662.048 -21293048.586 10 0 59987 33300.00000 0 1740234.170 -15855580.575 -19880823.535 10 0 59987 34200.00000 0 3226666.207 -17672616.095 -18081604.256 10 0 59987 35100.00000 0 4431262.293 -19398075.537 -15930396.944 10 0 59987 36000.00000 0 5351928.417 -20968563.466 -13469076.282 10 0 59987 36900.00000 0 5999029.241 -22323599.608 -10745566.010 10 0 59987 37800.00000 0 6394684.242 -23408133.348 -7812899.478 10 0 59987 38700.00000 0 6571567.143 -24174848.856 -4728178.989 10 0 59987 39600.00000 0 6571260.941 -24586163.239 -1551454.969 10 0 59987 40500.00000 0 6442239.801 -24615833.141 1655452.246 10 0 59987 41400.00000 0 6237564.909 -24250101.972 4830164.035 10 0 59987 42300.00000 0 6012393.453 -23488339.484 7910963.862 10 0 59987 43200.00000 0 5821407.593 -22343147.173 10838001.752 10 0 59987 44100.00000 0 5716273.366 -20839925.608 13554458.829 10 0 59987 45000.00000 0 5743237.792 -19015922.597 16007648.928 10 0 59987 45900.00000 0 5940966.127 -16918802.835 18150036.014 10 0 59987 46800.00000 0 6338710.646 -14604799.531 19940148.147 10 0 59987 47700.00000 0 6954887.989 -12136525.655 21343371.097 10 0 59987 48600.00000 0 7796124.627 -9580536.193 22332607.332 10 0 59987 49500.00000 0 8856810.261 -7004742.565 22888788.881 10 0 59987 50400.00000 0 10119177.690 -4475786.040 23001235.356 10 0 59987 51300.00000 0 11553905.806 -2056478.115 22667851.345 10 0 59987 52200.00000 0 13121220.770 196587.320 21895160.209 10 0 59987 53100.00000 0 14772449.888 2235152.560 20698174.184 10 0 59987 54000.00000 0 16451964.087 4021059.204 19100103.454 10 0 59987 54900.00000 0 18099428.876 5527584.332 17131909.607 10 0 59987 55800.00000 0 19652270.832 6740295.712 14831711.615 10 0 59987 56700.00000 0 21048257.624 7657391.852 12244055.044 10 0 59987 57600.00000 0 22228084.630 8289513.822 9419057.718 10 0 59987 58500.00000 0 23137860.558 8659037.566 6411447.462 10 0 59987 59400.00000 0 23731388.381 8798876.944 3279509.671 10 0 59987 60300.00000 0 23972145.951 8750848.129 83964.356 10 0 59987 61200.00000 0 23834882.880 8563664.363 -3113206.060 10 0 59987 62100.00000 0 23306765.953 8290645.692 -6249955.774 10 0 59987 63000.00000 0 22388024.022 7987240.399 -9265378.332 10 0 59987 63900.00000 0 21092064.078 7708463.027 -12100889.575 10 0 59987 64800.00000 0 19445052.324 7506357.538 -14701367.661 10 0 59987 65700.00000 0 17484976.427 7427593.320 -17016227.715 10 0 59987 66600.00000 0 15260226.899 7511296.357 -19000409.890 10 0 59987 67500.00000 0 12827755.793 7787208.053 -20615261.305 10 0 59987 68400.00000 0 10250888.597 8274250.574 -21829294.392 10 0 59987 69300.00000 0 7596879.883 8979560.473 -22618806.549 10 0 59987 70200.00000 0 4934314.035 9898032.722 -22968348.715 10 0 59987 71100.00000 0 2330458.901 11012395.778 -22871033.364 10 0 59987 72000.00000 0 -151317.604 12293815.868 -22328675.489 10 0 59987 72900.00000 0 -2453960.581 13703006.340 -21351763.363 10 0 59987 73800.00000 0 -4528870.522 15191796.435 -19959259.143 10 0 59987 74700.00000 0 -6337685.856 16705094.260 -18178232.720 10 0 59987 75600.00000 0 -7853631.634 18183161.798 -16043335.536 10 0 59987 76500.00000 0 -9062378.521 19564106.332 -13596124.364 10 0 59987 77400.00000 0 -9962376.953 20786483.139 -10884248.165 10 0 59987 78300.00000 0 -10564653.542 21791899.348 -7960514.089 10 0 59987 79200.00000 0 -10892079.670 22527508.577 -4881851.266 10 0 59987 80100.00000 0 -10978144.695 22948290.445 -1708193.351 10 0 59987 81000.00000 0 -10865287.298 23019018.203 1498697.468 10 0 59987 81900.00000 0 -10602857.275 22715831.003 4676441.072 10 0 59987 82800.00000 0 -10244795.715 22027344.266 7763259.963 10 0 59987 83700.00000 0 -9847133.279 20955251.394 10699185.112 10 0 59987 84600.00000 0 -9465413.690 19514391.702 13427223.006 10 0 59987 85500.00000 0 -9152152.318 17732282.182 15894460.844 10 0 59988 0.00000 0 -8954437.775 15648133.400 18053088.348 10 0 59988 900.00000 0 -8911777.815 13311390.054 19861317.917 10 0 59988 1800.00000 0 -9054280.361 10779860.339 21284183.279 10 0 59988 2700.00000 0 -9401245.469 8117508.497 22294206.128 10 0 59988 3600.00000 0 -9960227.127 5392004.875 22871916.102 10 0 59988 4500.00000 0 -10726603.629 2672133.652 23006216.505 10 0 59988 5400.00000 0 -11683674.166 25165.004 22694589.616 10 0 59988 6300.00000 0 -12803277.439 -2485700.633 21943138.497 10 0 59988 7200.00000 0 -14046906.514 -4803711.748 20766465.052 10 0 59988 8100.00000 0 -15367273.725 -6880671.436 19187386.872 10 0 59988 9000.00000 0 -16710260.855 -8678683.918 17236498.166 10 0 59988 9900.00000 0 -18017173.852 -10171470.961 14951582.758 10 0 59988 10800.00000 0 -19227208.639 -11345204.884 12376889.753 10 0 59988 11700.00000 0 -20280025.645 -12198824.675 9562284.954 10 0 59988 12600.00000 0 -21118325.836 -12743822.930 6562293.544 10 0 59988 13500.00000 0 -21690320.645 -13003513.229 3435051.684 10 0 59988 14400.00000 0 -21951992.209 -13011809.106 241186.565 10 0 59988 15300.00000 0 -21869048.718 -12811566.135 -2957353.864 10 0 59988 16200.00000 0 -21418492.028 -12452557.035 -6098499.139 10 0 59988 17100.00000 0 -20589730.679 -11989165.204 -9121259.375 10 0 59988 18000.00000 0 -19385190.272 -11477894.048 -11966909.726 10 0 59988 18900.00000 0 -17820394.077 -10974797.443 -14580133.044 10 0 59988 19800.00000 0 -15923508.906 -10532940.093 -16910098.245 10 0 59988 20700.00000 0 -13734373.687 -10199995.524 -18911453.083 10 0 59988 21600.00000 0 -11303049.872 -10016083.704 -20545211.712 10 0 59988 22500.00000 0 -8687952.901 -10011940.366 -21779519.455 10 0 59988 23400.00000 0 -5953641.570 -10207496.131 -22590279.582 10 0 59988 24300.00000 0 -3168356.544 -10610926.403 -22961629.548 10 0 59988 25200.00000 0 -401409.848 -11218213.120 -22886257.062 10 0 59988 26100.00000 0 2279466.428 -12013237.923 -22365549.407 10 0 59988 27000.00000 0 4810702.166 -12968403.796 -21409572.605 10 0 59988 27900.00000 0 7135294.713 -14045759.874 -20036880.347 10 0 59988 28800.00000 0 9204937.739 -15198582.663 -18274155.908 10 0 59988 29700.00000 0 10981784.924 -16373347.424 -16155693.609 10 0 59988 30600.00000 0 12439775.206 -17512006.706 -13722729.656 10 0 59988 31500.00000 0 13565464.709 -18554479.679 -11022635.334 10 0 59988 32400.00000 0 14358331.378 -19441246.743 -8107988.491 10 0 59988 33300.00000 0 14830540.696 -20115939.194 -5035541.829 10 0 59988 34200.00000 0 15006183.768 -20527813.753 -1865108.900 10 0 59988 35100.00000 0 14920021.542 -20634006.654 1341609.596 10 0 59988 36000.00000 0 14615789.948 -20401471.381 4522235.291 10 0 59988 36900.00000 0 14144139.330 -19808517.745 7614932.800 10 0 59988 37800.00000 0 13560296.923 -18845887.057 10559616.855 10 0 59988 38700.00000 0 12921552.635 -17517318.065 13299121.794 10 0 59988 39600.00000 0 12284675.436 -15839579.949 15780310.294 10 0 59988 40500.00000 0 11703370.143 -13841971.270 17955099.898 10 0 59988 41400.00000 0 11225882.129 -11565306.103 19781387.846 10 0 59988 42300.00000 0 10892850.707 -9060429.983 21223857.100 10 0 59988 43200.00000 0 10735501.029 -6386327.561 22254649.009 10 0 59988 44100.00000 0 10774249.754 -3607900.502 22853890.850 10 0 59988 45000.00000 0 11017782.191 -793507.417 23010069.270 10 0 59988 45900.00000 0 11462638.844 1987632.951 22720243.536 10 0 59988 46800.00000 0 12093328.066 4668068.880 21990095.399 10 0 59988 47700.00000 0 12882959.751 7184665.660 20833815.143 10 0 59988 48600.00000 0 13794373.509 9480974.382 19273826.244 10 0 59988 49500.00000 0 14781714.322 11509322.941 17340353.806 10 0 59988 50400.00000 0 15792390.231 13232544.049 15070844.592 10 0 59988 51300.00000 0 16769330.680 14625269.874 12509249.166 10 0 59988 52200.00000 0 17653451.563 15674740.656 9705179.066 10 0 59988 53100.00000 0 18386224.169 16381094.501 6712954.455 10 0 59988 54000.00000 0 18912240.607 16757126.967 3590559.754 10 0 59988 54900.00000 0 19181668.066 16827530.956 398526.748 10 0 59988 55800.00000 0 19152488.519 16627649.035 -2801233.706 10 0 59988 56700.00000 0 18792429.104 16201790.724 -5946629.065 10 0 59988 57600.00000 0 18080501.039 15601185.589 -8976588.477 10 0 59988 58500.00000 0 17008081.066 14881658.343 -11832248.698 10 0 59988 59400.00000 0 15579488.442 14101124.038 -14458099.344 10 0 59988 60300.00000 0 13812031.496 13317009.087 -16803064.946 10 0 59988 61200.00000 0 11735520.014 12583707.151 -18821502.440 10 0 59988 62100.00000 0 9391262.082 11950177.564 -20474094.362 10 0 59988 63000.00000 0 6830585.634 11457788.038 -21728620.085 10 0 59988 63900.00000 0 4112944.986 11138493.202 -22560589.710 10 0 59988 64800.00000 0 1303690.074 11013426.417 -22953727.968 10 0 59988 65700.00000 0 -1528409.654 11091964.911 -22900298.336 10 0 59988 66600.00000 0 -4313784.306 11371308.373 -22401260.627 10 0 59988 67500.00000 0 -6984717.007 11836589.425 -21466258.504 10 0 59988 68400.00000 0 -9477921.636 12461511.923 -20113436.699 10 0 59988 69300.00000 0 -11736937.585 13209490.585 -18369090.963 10 0 59988 70200.00000 0 -13714241.862 14035244.109 -16267157.189 10 0 59988 71100.00000 0 -15372990.607 14886774.521 -13848549.354 10 0 59988 72000.00000 0 -16688317.514 15707648.858 -11160359.115 10 0 59988 72900.00000 0 -17648135.398 16439486.260 -8254932.839 10 0 59988 73800.00000 0 -18253408.146 17024544.544 -5188844.468 10 0 59988 74700.00000 0 -18517882.776 17408296.002 -2021785.013 10 0 59988 75600.00000 0 -18467294.313 17541882.527 1184608.812 10 0 59988 76500.00000 0 -18138078.653 17384345.379 4367962.936 10 0 59988 77400.00000 0 -17575649.433 16904534.562 7466386.654 10 0 59988 78300.00000 0 -16832313.360 16082616.655 10419681.032 10 0 59988 79200.00000 0 -15964913.575 14911117.147 13170510.820 10 0 59988 80100.00000 0 -15032301.725 13395453.277 15665516.689 10 0 59988 81000.00000 0 -14092746.296 11553934.986 17856346.246 10 0 59988 81900.00000 0 -13201386.765 9417234.067 19700584.252 10 0 59988 82800.00000 0 -12407840.727 7027343.773 21162564.791 10 0 59988 83700.00000 0 -11754064.107 4436072.277 22214050.729 10 0 59988 84600.00000 0 -11272553.503 1703132.468 22834768.556 10 0 59988 85500.00000 0 -10984965.026 -1106093.005 23012789.498 10 0 59989 0.00000 0 -10901206.469 -3923019.237 22744750.737 10 0 59989 900.00000 0 -11019039.742 -6678459.415 22035913.131 10 0 59989 1800.00000 0 -11324209.494 -9305247.799 20900055.380 10 0 59989 2700.00000 0 -11791091.823 -11740783.176 19359206.440 10 0 59989 3600.00000 0 -12383835.830 -13929385.132 17443221.429 10 0 59989 4500.00000 0 -13057950.201 -15824368.417 15189208.738 10 0 59989 5400.00000 0 -13762268.614 -17389750.374 12640818.647 10 0 59989 6300.00000 0 -14441212.003 -18601521.583 9847406.328 10 0 59989 7200.00000 0 -15037253.176 -19448427.693 6863084.487 10 0 59989 8100.00000 0 -15493480.589 -19932230.446 3745683.110 10 0 59989 9000.00000 0 -15756153.666 -20067437.401 555635.666 10 0 59989 9900.00000 0 -15777142.006 -19880511.850 -2645187.166 10 0 59989 10800.00000 0 -15516145.335 -19408596.099 -5794673.979 10 0 59989 11700.00000 0 -14942599.885 -18697801.708 -8831676.267 10 0 59989 12600.00000 0 -14037189.786 -17801138.486 -11697195.747 10 0 59989 13500.00000 0 -12792898.357 -16776169.325 -14335532.134 10 0 59989 14400.00000 0 -11215553.346 -15682489.620 -16695368.804 10 0 59989 15300.00000 0 -9323841.344 -14579137.474 -18730774.886 10 0 59989 16200.00000 0 -7148788.796 -13522043.940 -20402104.001 10 0 59989 17100.00000 0 -4732729.392 -12561630.905 -21676771.832 10 0 59989 18000.00000 0 -2127799.271 -11740658.102 -22529897.068 10 0 59989 18900.00000 0 605978.753 -11092410.246 -22944792.917 10 0 59989 19800.00000 0 3402943.335 -10639301.034 -22913299.248 10 0 59989 20700.00000 0 6194282.458 -10391953.176 -22435948.471 10 0 59989 21600.00000 0 8910658.087 -10348793.570 -21521961.454 10 0 59989 22500.00000 0 11484858.766 -10496180.953 -20189073.044 10 0 59989 23400.00000 0 13854369.854 -10809060.800 -18463190.106 10 0 59989 24300.00000 0 15963754.316 -11252119.852 -16377888.316 10 0 59989 25200.00000 0 17766744.780 -11781391.291 -13973757.210 10 0 59989 26100.00000 0 19227959.492 -12346242.323 -11297606.195 10 0 59989 27000.00000 0 20324170.643 -12891659.447 -8401547.153 10 0 59989 27900.00000 0 21045072.424 -13360733.881 -5341971.934 10 0 59989 28800.00000 0 21393517.362 -13697240.915 -2178445.418 10 0 59989 29700.00000 0 21385212.144 -13848202.949 1027463.387 10 0 59989 30600.00000 0 21047887.099 -13766326.669 4213388.437 10 0 59989 31500.00000 0 20419975.956 -13412210.279 7317387.302 10 0 59989 32400.00000 0 19548863.121 -12756226.752 10279150.725 10 0 59989 33300.00000 0 18488773.991 -11780002.990 13041176.866 10 0 59989 34200.00000 0 17298398.567 -10477432.214 15549886.967 10 0 59989 35100.00000 0 16038349.483 -8855176.801 17756660.825 10 0 59989 36000.00000 0 14768562.031 -6932640.405 19618772.393 10 0 59989 36900.00000 0 13545745.592 -4741410.488 21100208.094 10 0 59989 37800.00000 0 12420993.097 -2324194.446 22172353.097 10 0 59989 38700.00000 0 11437648.017 266706.583 22814533.480 10 0 59989 39600.00000 0 10629517.124 2971323.190 23014405.039 10 0 59989 40500.00000 0 10019502.554 5724263.198 22768182.388 10 0 59989 41400.00000 0 9618709.056 8457185.050 22080704.850 10 0 59989 42300.00000 0 9426062.542 11101397.735 20965338.475 10 0 59989 43200.00000 0 9428454.865 13590480.868 19443716.318 10 0 59989 44100.00000 0 9601408.031 15862817.785 17545321.875 10 0 59989 45000.00000 0 9910229.619 17863937.969 15306923.257 10 0 59989 45900.00000 0 10311610.874 19548572.809 12771868.339 10 0 59989 46800.00000 0 10755600.549 20882340.374 9989253.572 10 0 59989 47700.00000 0 11187871.861 21842989.798 7012981.675 10 0 59989 48600.00000 0 11552187.514 22421154.000 3900725.498 10 0 59989 49500.00000 0 11792959.253 22620579.557 712817.379 10 0 59989 50400.00000 0 11857794.103 22457824.216 -2488915.043 10 0 59989 51300.00000 0 11699919.701 21961434.597 -5642344.327 10 0 59989 52200.00000 0 11280385.819 21170638.415 -8686247.041 10 0 59989 53100.00000 0 10569948.307 20133605.872 -11561492.405 10 0 59989 54000.00000 0 9550554.700 18905353.043 -14212192.542 10 0 59989 54900.00000 0 8216367.321 17545375.199 -16586791.717 10 0 59989 55800.00000 0 6574278.973 16115109.471 -18639073.032 10 0 59989 56700.00000 0 4643897.536 14675333.503 -20329062.712 10 0 59989 57600.00000 0 2456998.060 13283609.498 -21623814.027 10 0 59989 58500.00000 0 56463.320 11991881.230 -22498055.293 10 0 59989 59400.00000 0 -2505244.697 10844325.167 -22934688.970 10 0 59989 60300.00000 0 -5168020.153 9875546.179 -22925131.812 10 0 59989 61200.00000 0 -7866376.065 9109193.851 -22469488.972 10 0 59989 62100.00000 0 -10531940.999 8557057.681 -21576558.270 10 0 59989 63000.00000 0 -13096086.307 8218679.222 -20263663.991 10 0 59989 63900.00000 0 -15492574.687 8081497.436 -18556322.997 10 0 59989 64800.00000 0 -17660119.682 8121520.838 -16487749.223 10 0 59989 65700.00000 0 -19544749.242 8304497.659 -14098205.906 10 0 59989 66600.00000 0 -21101874.426 8587533.948 -11434218.085 10 0 59989 67500.00000 0 -22297976.667 8921090.392 -8547660.861 10 0 59989 68400.00000 0 -23111843.077 9251272.337 -5494741.603 10 0 59989 69300.00000 0 -23535298.324 9522314.914 -2334896.634 10 0 59989 70200.00000 0 -23573403.099 9679156.779 870375.195 10 0 59989 71100.00000 0 -23244111.865 9669992.266 4058718.303 10 0 59989 72000.00000 0 -22577405.571 9448692.746 7168140.980 10 0 59989 72900.00000 0 -21613937.352 8976993.799 10138226.085 10 0 59989 73800.00000 0 -20403249.704 8226355.009 12911307.591 10 0 59989 74700.00000 0 -19001639.595 7179413.383 15433589.665 10 0 59989 75600.00000 0 -17469762.444 5830968.836 17656186.553 10 0 59989 76500.00000 0 -15870076.384 4188460.146 19536063.497 10 0 59989 77400.00000 0 -14264234.417 2271911.321 21036861.159 10 0 59989 78300.00000 0 -12710533.572 113350.468 22129588.657 10 0 59989 79200.00000 0 -11261527.197 -2244274.805 22793173.020 10 0 59989 80100.00000 0 -9961899.207 -4748640.695 23014855.667 10 0 59989 81000.00000 0 -8846687.749 -7339985.681 22790429.425 10 0 59989 81900.00000 0 -7939930.965 -9953364.574 22124312.450 10 0 59989 82800.00000 0 -7253789.884 -12521125.676 21029458.218 10 0 59989 83700.00000 0 -6788183.699 -14975509.581 19527103.633 10 0 59989 84600.00000 0 -6530951.449 -17251263.172 17646359.965 10 0 59989 85500.00000 0 -6458532.535 -19288161.634 15423654.107 99